Simultaneous Nadir Overpasses (SNOs) Predictions

Prediction of SNOs between GOES-15 and TERRA Satellite Orbit:

Table of predicted SNOs for the next 14.0 days since TLE Epoch: 11/2/2013
Index Date Time (GOES-15) GOES-15 Lat,Lon TERRA Lat,Lon Distance(km) Time Diff (sec)
1 11/02/2013 19:12:42 -0.31,-135.00 -1.14,-131.20 432.68 80
2 11/03/2013 07:36:46 0.29,-135.06 -0.00,-136.38 150.99 80
3 11/05/2013 07:21:56 0.29,-135.11 0.63,-133.43 190.75 80
4 11/05/2013 19:45:51 -0.27,-135.08 0.46,-138.59 398.89 80
5 11/07/2013 19:33:41 -0.27,-135.13 -0.14,-135.63 57.82 80
6 11/09/2013 19:18:51 -0.27,-135.17 -0.82,-132.68 283.02 80
7 11/10/2013 07:42:54 0.25,-135.23 -0.29,-137.87 300.21 80
8 11/12/2013 07:28:03 0.25,-135.27 0.35,-134.92 40.27 80
9 11/14/2013 07:15:52 0.26,-135.31 0.95,-131.96 380.47 80
10 11/14/2013 19:39:46 -0.24,-135.26 0.19,-137.10 210.14 80




NCC Satellite Simultaneous Nadir Overpasses (SNOs) Prediction Service
